Date String (YYYY-MM-DD hh:mm:ss) UTC,Instrument flags,Ambient pressure (hPa),Sample flow (lpm),Bypass flow (lpm),Sample temperature (°C),Ambient temperature (°C),ASC tube jacket temperature (°C),LED temperature (°C),Box temperature (°C),Sample RH (%),Span deviation,Mass concentration (μg/m³),Mass concentration (μg/m³),Mass concentration (μg/m³)
DateTimeUTC,F1_M11,P_M11,Q1_M11,Q2_M11,T1_M11,T2_M11,T3_M11,T4_M11,T5_M11,U1_M11,ZSPAN_M11,X0_M11,X2_M11,X1_M11
2022-10-06 23:00:00,,0833.1,4.98,0.00,29.9,28.7,00.0,38.5,31.8,14.9,0000.9,0013.77,0007.25,0006.62
2022-10-06 23:01:00,,0833.0,5.01,0.00,29.9,28.8,00.0,38.5,31.9,14.9,0000.9,0013.68,0007.23,0006.62
2022-10-06 23:02:00,,0833.0,5.00,0.00,29.9,28.8,00.0,38.6,31.9,15.0,0000.7,0013.36,0007.19,0006.59
2022-10-06 23:03:00,,0833.0,5.00,0.00,29.9,27.6,00.0,38.5,31.8,15.2,0001.1,0013.14,0007.15,0006.57
2022-10-06 23:04:00,,0833.1,5.00,0.00,29.9,26.3,00.0,38.5,31.6,15.2,0001.1,0013.05,0007.11,0006.53
2022-10-06 23:05:00,,0833.0,4.99,0.00,29.8,26.2,00.0,38.4,31.5,15.1,0001.0,0013.05,0007.06,0006.50
2022-10-06 23:06:00,,0833.0,4.99,0.00,29.7,26.5,00.0,38.4,31.4,15.3,0000.7,0013.16,0007.07,0006.50
2022-10-06 23:07:00,,0833.1,5.00,0.00,29.6,26.8,00.0,38.4,31.4,15.4,0001.4,0013.80,0006.99,0006.44
2022-10-06 23:08:00,,0833.0,5.00,0.00,29.6,27.2,00.0,38.4,31.4,15.2,0001.2,0014.31,0006.91,0006.37
2022-10-06 23:09:00,,0833.0,5.01,0.00,29.6,27.5,00.0,38.3,31.4,15.2,0001.0,0014.90,0006.82,0006.29
2022-10-06 23:10:00,,0833.0,4.99,0.00,29.6,27.8,00.0,38.3,31.4,15.1,0001.4,0014.27,0006.74,0006.21
2022-10-06 23:11:00,,0833.1,5.00,0.00,29.6,28.0,00.0,38.3,31.5,15.4,0002.6,0014.39,0006.63,0006.11
2022-10-06 23:12:00,,0833.0,5.00,0.00,29.6,28.2,00.0,38.3,31.5,15.4,0002.9,0014.21,0006.52,0005.99
2022-10-06 23:13:00,,0833.1,5.00,0.00,29.7,28.4,00.0,38.4,31.6,15.1,0002.6,0014.63,0006.42,0005.89
2022-10-06 23:14:00,,0833.0,4.99,0.00,29.7,28.5,00.0,38.4,31.7,15.0,0002.2,0014.40,0006.35,0005.84
2022-10-06 23:15:00,,0833.0,5.01,0.00,29.7,28.7,00.0,38.4,31.7,15.0,0002.7,0013.71,0006.31,0005.81
2022-10-06 23:16:00,,0833.1,4.99,0.00,29.8,28.8,00.0,38.4,31.8,15.0,0003.1,0013.58,0006.27,0005.76
2022-10-06 23:17:00,,0833.1,4.99,0.00,29.8,28.9,00.0,38.4,31.8,14.7,0003.1,0013.57,0006.17,0005.71
2022-10-06 23:18:00,,0833.1,5.02,0.00,29.8,29.0,00.0,38.4,31.8,14.7,0002.7,0013.37,0006.13,0005.68
2022-10-06 23:19:00,,0833.0,4.99,0.00,29.9,29.0,00.0,38.5,31.9,14.7,0003.3,0012.72,0006.11,0005.65
2022-10-06 23:20:00,,0833.1,5.01,0.00,29.9,27.7,00.0,38.5,31.7,14.8,0003.7,0011.95,0006.09,0005.63
2022-10-06 23:21:00,,0833.0,5.00,0.00,29.8,26.2,00.0,38.4,31.4,14.8,0003.1,0011.91,0006.07,0005.60
2022-10-06 23:22:00,,0833.1,5.00,0.00,29.7,26.0,00.0,38.4,31.3,15.1,0002.8,0011.13,0006.05,0005.58
2022-10-06 23:23:00,,0833.0,5.00,0.00,29.6,26.3,00.0,38.3,31.2,15.3,0002.2,0011.05,0006.02,0005.53
2022-10-06 23:24:00,,0833.1,5.00,0.00,29.6,26.7,00.0,38.3,31.2,15.5,0002.3,0010.51,0005.94,0005.48
2022-10-06 23:25:00,,0833.1,5.00,0.00,29.5,27.0,00.0,38.3,31.3,15.5,0001.8,0010.44,0005.89,0005.42
2022-10-06 23:26:00,,0833.0,4.99,0.00,29.5,27.4,00.0,38.3,31.3,15.5,0002.0,0010.47,0005.84,0005.36
2022-10-06 23:27:00,,0833.1,5.00,0.00,29.5,27.7,00.0,38.3,31.4,15.5,0002.1,0010.36,0005.83,0005.32
2022-10-06 23:28:00,,0833.0,5.01,0.00,29.5,28.0,00.0,38.3,31.4,15.3,0002.8,0010.23,0005.79,0005.26
2022-10-06 23:29:00,,0833.1,4.99,0.00,29.6,28.2,00.0,38.3,31.5,15.2,0003.0,0009.48,0005.76,0005.21
2022-10-06 23:30:00,,0833.0,5.01,0.00,29.6,28.4,00.0,38.3,31.5,15.3,0002.6,0009.60,0005.72,0005.16
2022-10-06 23:31:00,,0833.0,4.99,0.00,29.6,28.5,00.0,38.3,31.6,15.2,0001.9,0009.87,0005.69,0005.13
2022-10-06 23:32:00,,0833.0,5.01,0.00,29.7,28.6,00.0,38.3,31.6,15.3,0002.0,0010.68,0005.65,0005.09
2022-10-06 23:33:00,,0833.1,4.99,0.00,29.7,28.7,00.0,38.3,31.7,15.5,0002.0,0010.71,0005.64,0005.06
2022-10-06 23:34:00,,0833.0,5.00,0.00,29.7,28.8,00.0,38.3,31.7,15.5,0002.5,0010.78,0005.64,0005.05
2022-10-06 23:35:00,,0833.0,5.00,0.00,29.8,28.9,00.0,38.4,31.8,15.3,0002.5,0010.98,0005.63,0005.04
2022-10-06 23:36:00,,0833.0,4.99,0.00,29.8,29.0,00.0,38.4,31.8,15.2,0002.7,0011.07,0005.64,0005.04
2022-10-06 23:37:00,,0833.1,5.01,0.00,29.8,28.6,00.0,38.4,31.8,14.9,0002.8,0011.21,0005.62,0005.03
2022-10-06 23:38:00,,0833.0,5.00,0.00,29.8,26.9,00.0,38.4,31.6,14.9,0003.0,0011.57,0005.57,0005.01
2022-10-06 23:39:00,,0833.1,4.99,0.00,29.7,25.8,00.0,38.3,31.4,15.1,0002.3,0011.68,0005.56,0005.00
2022-10-06 23:40:00,,0833.0,5.01,0.00,29.6,26.0,00.0,38.3,31.3,15.1,0002.2,0011.74,0005.58,0005.00
2022-10-06 23:41:00,,0833.0,5.01,0.00,29.5,26.3,00.0,38.3,31.2,15.3,0002.6,0012.06,0005.58,0005.01
2022-10-06 23:42:00,,0833.1,5.01,0.00,29.5,26.7,00.0,38.2,31.2,15.5,0003.3,0011.73,0005.58,0005.02
2022-10-06 23:43:00,,0833.1,5.00,0.00,29.5,27.1,00.0,38.2,31.2,15.8,0003.7,0010.98,0005.58,0005.02
2022-10-06 23:44:00,,0833.1,4.99,0.00,29.5,27.4,00.0,38.2,31.3,15.8,0003.7,0011.07,0005.61,0005.02
2022-10-06 23:45:00,,0833.0,5.01,0.00,29.5,27.7,00.0,38.2,31.3,15.6,0002.9,0011.18,0005.69,0005.08
2022-10-06 23:46:00,,0833.0,4.99,0.00,29.5,27.9,00.0,38.2,31.4,15.7,0003.3,0011.21,0005.79,0005.15
2022-10-06 23:47:00,,0833.0,4.99,0.00,29.5,28.1,00.0,38.2,31.4,15.6,0003.0,0011.98,0005.84,0005.22
2022-10-06 23:48:00,,0833.1,5.01,0.00,29.5,28.2,00.0,38.2,31.5,15.6,0002.8,0011.88,0005.91,0005.27
2022-10-06 23:49:00,,0833.0,4.99,0.00,29.6,28.4,00.0,38.2,31.5,15.7,0002.0,0011.60,0005.99,0005.33
2022-10-06 23:50:00,,0833.1,5.00,0.00,29.6,28.5,00.0,38.2,31.5,15.6,0001.8,0012.97,0006.21,0005.41
2022-10-06 23:51:00,,0833.0,5.01,0.00,29.6,28.6,00.0,38.3,31.6,15.2,0001.5,0014.60,0006.46,0005.49
2022-10-06 23:52:00,,0833.0,4.99,0.00,29.7,28.7,00.0,38.3,31.7,15.2,0000.8,0014.42,0006.54,0005.57
2022-10-06 23:53:00,,0833.0,5.00,0.00,29.7,28.7,00.0,38.3,31.7,15.2,0000.7,0015.07,0006.61,0005.64
2022-10-06 23:54:00,,0833.0,5.02,0.00,29.7,28.8,00.0,38.3,31.7,15.3,0000.1,0015.52,0006.70,0005.72
2022-10-06 23:55:00,,0833.1,4.99,0.00,29.8,28.6,00.0,38.4,31.7,15.2,-000.1,0015.71,0006.75,0005.80
2022-10-06 23:56:00,,0833.0,5.01,0.00,29.8,27.2,00.0,38.3,31.6,15.2,0000.7,0015.55,0006.74,0005.83
2022-10-06 23:57:00,,0833.0,5.00,0.00,29.7,26.6,00.0,38.3,31.5,15.3,0000.5,0015.49,0006.73,0005.82
2022-10-06 23:58:00,,0833.1,5.01,0.00,29.6,26.8,00.0,38.3,31.4,15.3,0000.7,0014.97,0006.73,0005.82
2022-10-06 23:59:00,,0833.1,5.00,0.00,29.6,27.0,00.0,38.3,31.3,15.4,0000.5,0015.40,0006.71,0005.82
